Other Public Products
Issued by NWS Charleston, SC

Current Version | Previous Version | Graphics & Text | Print | Product List | Glossary On
Versions: 1 2 3 4 5 6 7 8 9 10 11 12 13 14 15 16 17 18 19 20 21 22 23 24 25 26 27 28 29 30 31 32 33 34 35 36 37 38 39 40 41 42 43 44 45 46 47 48 49 50
927 FPUS82 KCHS 141411 OPUCHS TEST...KCHS/KSAV Gateway Observations...TEST National Weather Service Charleston SC 900 AM EST THU DEC 14 2017 NOTE: "fair" indicates few or no clouds below 12,000 feet with no significant weather and/or obstructions to visibility. SCZ050-WAZ558-NCZ071-TXZ119-213-PAZ071-DCZ001-FLZ074-172-MI076- NYZ176-178-MAZ016-IL014-TNZ027-NJZ106-GAZ044-MD014-141500- ...Gateway Observations for Charleston International... CITY SKY/WX TMP DP RH WIND PRES REMARKS Chas Airport MOSUNNY 47 32 56 W10 29.93R Seattle CLOUDY 41 36 82 NE7 30.32F Charlotte MOSUNNY 41 24 51 SW8 29.83R Dallas DFW PTCLDY 48 31 51 N16 29.99R Dallas Love PTCLDY 42 29 59 NW6 30.00R Philladelphia MOSUNNY 37 24 59 W16G24 29.65R WCI 28 Wash National MOSUNNY 41 22 46 W13G18 29.72R Baltimore MOSUNNY 38 25 59 W8 29.69R WCI 32 Miami SUNNY 60 45 57 N5 30.12R Detroit PTCLDY 16 7 67 NW9 29.97R WCI 4 Newark FLURRIES 27 23 85 N13 29.65R WCI 16 Laguardia CLOUDY 28 23 81 N13 29.64R WCI 17 J F K LGT SNOW 28 25 88 N12 29.64R FOG WCI 18 Boston Logan CLOUDY 23 10 57 NW8 29.61S WCI 14 Ft. Lauderdale SUNNY 58 49 72 N6 30.10R Chicago O`Hare PTCLDY 17 9 70 N13 30.02R WCI 4 Chicago Midway MOCLDY 18 11 74 NW12 30.03R WCI 5 Houston Bush CLOUDY 46 44 93 CALM 29.97S Houston Hobby MOCLDY 45 44 97 S3 29.98R Nashville PTSUNNY 38 28 67 NW6 29.96S WCI 33 Atlanta MOSUNNY 42 31 64 W8 29.91R $$ GAZ044-118-TXZ119-213-NCZ071-DCZ001-MDZ014-506-PAZ021-071-NJZ106- NYZ176-178-MAZ106-OHZ011-021-055-MIZ076-KYZ091-ILZ014-INZ047- MNZ060-ONZ431-141500- ...Gateway Observations for Savannah International... CITY SKY/WX TMP DP RH WIND PRES REMARKS Savannah Arpt CLOUDY 45 36 70 W9 29.98R Atlanta MOSUNNY 42 31 64 W8 29.91R Charlotte MOSUNNY 41 24 51 SW8 29.83R Dallas DFW PTCLDY 48 31 51 N16 29.99R Houston Bush CLOUDY 46 44 93 CALM 29.97S Wash National MOSUNNY 41 22 46 W13G18 29.72R Wash Dulles PTSUNNY 39 23 52 NW24G32 29.71R WCI 28 Baltimore MOSUNNY 38 25 59 W8 29.69R WCI 32 Philadelphia MOSUNNY 37 24 59 W16G24 29.65R WCI 28 Newark FLURRIES 27 23 85 N13 29.65R WCI 16 Laguardia CLOUDY 28 23 81 N13 29.64R WCI 17 J F K LGT SNOW 28 25 88 N12 29.64R FOG WCI 18 Boston CLOUDY 23 10 57 NW8 29.61S WCI 14 Pittsburg LGT SNOW 25 21 85 NW9 29.85R VSB 3/4 WCI 15 Akron LGT SNOW 23 15 71 N10 29.88R WCI 12 Cleveland PTSUNNY 24 14 65 NW8 29.94R WCI 15 Cincinnati CLOUDY 25 18 74 N8 29.96R WCI 16 Columbus CLOUDY 24 16 72 N7 29.96R WCI 15 Detroit PTCLDY 16 7 67 NW9 29.97R WCI 4 Chicago O`Hare PTCLDY 17 9 70 N13 30.02R WCI 4 Minneapolis MOCLDY 16 12 84 CALM 30.03S Indianapolis CLOUDY 25 13 60 N9 29.99R WCI 15 Toronto Canada PTCLDY 5 -2 72 NW8 29.85R WCI -8 $$

USA.gov is the U.S. government's official web portal to all federal, state and local government web resources and services.